Weather History for Caldwell, NJ

Change the Weather History Date:

Tuesday, June 11, 2013

  Actual Average Record
Temperature  
Mean Temperature 70 °F -  
Max Temperature 80 °F 80 °F 96 °F (1974)
Min Temperature 62 °F 53 °F 38 °F (1980)
Cooling Degree Days 6    
Growing Degree Days 20 (Base 50)    
Moisture  
Dew Point 63 °F    
Average Humidity 81    
Maximum Humidity 100    
Minimum Humidity 58    
Precipitation  
Precipitation 0.11 in - - ()
Sea Level Pressure  
Sea Level Pressure 29.73 in    
Wind  
Wind Speed 5 mph (WNW)    
Max Wind Speed 14 mph    
Max Gust Speed 25 mph    
Visibility 8 miles    
Events Rain    
Averages and records for this station are not official NWS values.
T = Trace of Precipitation, MM = Missing Value Source: NWS Daily Summary

Daily Weather History Graph

Daily Weather History Graph

Search for Another Location

Airport:

Trip Planner

Search our weather history database for the weather conditions in past years. The results will help you decide how hot, cold, wet, or windy it might be!

Date:

Astronomy

Jun. 11, 2013 Rise Set
Actual Time 5:24 AM EDT 8:28 PM EDT
Civil Twilight 4:51 AM EDT 9:02 PM EDT
Nautical Twilight 4:09 AM EDT 9:44 PM EDT
Astronomical Twilight 3:19 AM EDT 10:35 PM EDT
Moon 8:06 AM EDT (6/11) 10:29 PM EDT (6/11)
Length of Visible Light 16h 10m
Length of Day
15h 04m
Waxing Crescent, 8% of the Moon is Illuminated
Jun 11
Waxing Crescent
Jun 16
First Quarter
Jun 23
Full
Jun 30
Last Quarter
Jul 8
New

Hourly Weather History & Observations

Time (EDT) Temp. Dew Point Humidity Pressure Visibility Wind Dir Wind Speed Gust Speed Precip Events Conditions
12:53 AM 62.1 °F 62.1 °F 100% 29.81 in 9.0 mi East 6.9 mph - 0.04 in Rain Light Rain
1:53 AM 62.1 °F 62.1 °F 100% 29.79 in 5.0 mi ENE 6.9 mph - 0.00 in Rain Light Rain
2:53 AM 63.0 °F 63.0 °F 100% 29.76 in 6.0 mi East 4.6 mph - 0.00 in   Overcast
3:23 AM 62.6 °F 62.6 °F 100% 29.74 in 2.5 mi North 4.6 mph - 0.02 in Rain Rain
3:40 AM 62.6 °F 62.6 °F 100% 29.74 in 5.0 mi Calm Calm - 0.03 in Rain Light Rain
3:53 AM 63.0 °F 63.0 °F 100% 29.75 in 6.0 mi East 4.6 mph - 0.03 in   Overcast
4:53 AM 64.0 °F 63.0 °F 96% 29.75 in 5.0 mi Calm Calm - N/A   Overcast
5:53 AM 63.0 °F 63.0 °F 100% 29.75 in 5.0 mi Calm Calm - N/A   Overcast
6:41 AM 64.4 °F 64.4 °F 100% 29.74 in 6.0 mi Calm Calm - N/A   Overcast
6:53 AM 64.9 °F 64.0 °F 97% 29.76 in 7.0 mi Calm Calm - N/A   Overcast
7:26 AM 66.2 °F 66.2 °F 100% 29.74 in 5.0 mi Calm Calm - N/A   Mostly Cloudy
7:53 AM 69.1 °F 68.0 °F 96% 29.76 in 8.0 mi WSW 4.6 mph - N/A   Mostly Cloudy
8:39 AM 71.6 °F 68.0 °F 88% 29.75 in 10.0 mi WSW 6.9 mph - N/A   Scattered Clouds
8:53 AM 72.0 °F 68.0 °F 87% 29.76 in 10.0 mi Variable 4.6 mph - N/A   Partly Cloudy
9:07 AM 71.6 °F 66.2 °F 83% 29.74 in 10.0 mi West 5.8 mph - N/A   Mostly Cloudy
9:53 AM 73.9 °F 64.9 °F 73% 29.75 in 10.0 mi West 6.9 mph - N/A   Scattered Clouds
10:53 AM 75.9 °F 64.9 °F 69% 29.74 in 10.0 mi Variable 6.9 mph - N/A   Scattered Clouds
11:53 AM 77.0 °F 63.0 °F 62% 29.73 in 10.0 mi West 8.1 mph - N/A   Mostly Cloudy
12:53 PM 78.1 °F 62.1 °F 58% 29.70 in 10.0 mi West 8.1 mph - N/A   Scattered Clouds
1:53 PM 75.0 °F 64.9 °F 71% 29.68 in 4.0 mi WSW 4.6 mph - 0.00 in Rain Light Rain
2:53 PM 75.9 °F 64.0 °F 67% 29.68 in 10.0 mi West 12.7 mph 23.0 mph 0.01 in Rain Light Rain
3:53 PM 78.1 °F 64.0 °F 62% 29.66 in 10.0 mi WSW 10.4 mph 23.0 mph 0.00 in   Mostly Cloudy
4:53 PM 79.0 °F 63.0 °F 58% 29.65 in 10.0 mi West 11.5 mph 25.3 mph N/A   Overcast
5:53 PM 79.0 °F 63.0 °F 58% 29.65 in 10.0 mi West 13.8 mph 25.3 mph N/A   Mostly Cloudy
6:53 PM 73.0 °F 66.0 °F 79% 29.67 in 10.0 mi WNW 9.2 mph - 0.03 in   Overcast
7:53 PM 73.0 °F 63.0 °F 71% 29.68 in 10.0 mi WNW 10.4 mph - N/A   Mostly Cloudy
8:53 PM 72.0 °F 61.0 °F 68% 29.70 in 10.0 mi WNW 9.2 mph - N/A   Clear
9:53 PM 71.1 °F 59.0 °F 66% 29.73 in 10.0 mi WNW 5.8 mph - N/A   Partly Cloudy
10:53 PM 70.0 °F 57.9 °F 65% 29.74 in 10.0 mi Calm Calm - N/A   Mostly Cloudy
11:53 PM 70.0 °F 57.0 °F 63% 29.75 in 10.0 mi WNW 4.6 mph - N/A   Mostly Cloudy